Tracking 28125 objects as of 4-Oct-2023
HD Live streaming from Space Station
objects crossing your sky now

THORAD AGENA D DEB

Track THORAD AGENA D DEB now!
10-day predictions


NORAD ID: 4948
Int'l Code: 1970-025GJ
Perigee: 925.7 km
Apogee: 1,238.9 km
Inclination: 99.5 °
Period: 106.7 minutes
Semi major axis: 7453 km
RCS: 0.0194 m2 (small)
Launch date: April 8, 1970
Source: United States (US)
Launch site: AIR FORCE WESTERN TEST RANGE (AFWTR)

Note: This is SATELLITE DEBRIS
Your satellite tracking list
Your tracking list is empty




NASA's NSSDC Master Catalog

Two Line Element Set (TLE):
1  4948U 70025GJ  23277.14920520  .00001499  00000-0  21375-2 0  9996
2  4948  99.4805 157.5796 0210117  97.7556  54.2170 13.49222818605531
Source of the keplerian elements: AFSPC